Location: Dammartin
(48.9032°N, 1.6195°E)
Time: 19:54:18
(UTC+00:00)

BlueWalker 3 - Pass Details

Date: 20 April 2024
Orbit: 482 x 494 km, 53.2° (Epoch: 22 May)

Event Time Altitude Azimuth Distance (km) Brightness Sun altitude
Rises 23:01:10 0° 288° (WNW) 2,584 6.0 -28.1°
Reaches altitude 10° 23:03:25 10° 294° (WNW) 1,702 5.0 -28.2°
Enters shadow 23:05:01 22° 306° (NW) 1,119 4.1 -28.3°
